When you browse on this site, cookies collect data to enhance your experience and personalize the content and advertising you see.
Visit our Privacy Policy to learn more. By continuing to use the site, you agree to this use of cookies and data.
  • In Portugal
  • List of Countries
  • For 7 days
  • Water Temperature
  • Satellite Maps
  • Weather Map
  • Weather Widgets
  • user-avatar
    Login

    Hourly Weather Parzyce

    Today, 16 June, Sunday

    Time Temperature Precipitation Wind Pressure Humidity
    00:00 +20°C° 1.1 mm 2 mps 743 mmHg 93%
    01:00 +20°C° 0 mm 2 mps 744 mmHg 97%
    02:00 +20°C° 0.3 mm 2 mps 744 mmHg 97%
    03:00 +19°C° 0.3 mm 3 mps 744 mmHg 97%
    04:00 +19°C° 0.3 mm 3 mps 743 mmHg 97%
    05:00 +19°C° 0.3 mm 3 mps 744 mmHg 95%
    06:00 +18°C° 0.3 mm 2 mps 744 mmHg 94%
    07:00 +18°C° 0 mm 2 mps 745 mmHg 95%
    08:00 +19°C° 0.2 mm 2 mps 745 mmHg 89%
    09:00 +19°C° 0.2 mm 2 mps 746 mmHg 83%
    10:00 +20°C° 0.2 mm 3 mps 746 mmHg 77%
    11:00 +20°C° 0.2 mm 3 mps 746 mmHg 75%
    12:00 +21°C° 0.2 mm 3 mps 746 mmHg 73%
    13:00 +21°C° 0.2 mm 3 mps 747 mmHg 72%
    14:00 +21°C° 0 mm 3 mps 746 mmHg 71%
    15:00 +21°C° 0 mm 3 mps 746 mmHg 70%
    16:00 +21°C° 0 mm 3 mps 746 mmHg 69%
    17:00 +21°C° 0 mm 2 mps 746 mmHg 69%
    18:00 +20°C° 0 mm 2 mps 747 mmHg 69%
    19:00 +21°C° 0 mm 1 mps 747 mmHg 70%
    20:00 +20°C° 0 mm 1 mps 747 mmHg 72%
    21:00 +19°C° 0 mm 1 mps 748 mmHg 75%
    22:00 +18°C° 0 mm 1 mps 748 mmHg 78%
    23:00 +16°C° 0 mm 1 mps 748 mmHg 81%

    Tomorrow, 17 June, Monday

    Time Temperature Precipitation Wind Pressure Humidity
    00:00 +15°C° 0 mm 1 mps 748 mmHg 84%
    01:00 +13°C° 0 mm 0 mps 748 mmHg 87%
    02:00 +13°C° 0 mm 0 mps 748 mmHg 88%
    03:00 +13°C° 0 mm 0 mps 748 mmHg 89%
    04:00 +13°C° 0 mm 0 mps 748 mmHg 90%
    05:00 +14°C° 0 mm 0 mps 748 mmHg 84%
    06:00 +16°C° 0 mm 0 mps 749 mmHg 78%
    07:00 +20°C° 0 mm 1 mps 749 mmHg 72%
    08:00 +21°C° 0 mm 1 mps 749 mmHg 67%
    09:00 +23°C° 0 mm 1 mps 749 mmHg 62%
    10:00 +24°C° 0 mm 2 mps 749 mmHg 57%
    11:00 +24°C° 0 mm 2 mps 749 mmHg 56%
    12:00 +25°C° 0 mm 2 mps 748 mmHg 56%
    13:00 +25°C° 0 mm 2 mps 748 mmHg 56%
    14:00 +25°C° 0 mm 2 mps 748 mmHg 57%
    15:00 +25°C° 0 mm 2 mps 748 mmHg 58%
    16:00 +25°C° 0 mm 3 mps 747 mmHg 59%
    17:00 +24°C° 0 mm 3 mps 747 mmHg 64%
    18:00 +22°C° 0 mm 3 mps 747 mmHg 69%
    19:00 +21°C° 0 mm 2 mps 747 mmHg 73%
    20:00 +20°C° 0 mm 2 mps 747 mmHg 75%
    21:00 +18°C° 0 mm 2 mps 747 mmHg 77%
    22:00 +17°C° 0 mm 2 mps 747 mmHg 79%
    23:00 +16°C° 0 mm 2 mps 747 mmHg 80%

    Day after tomorrow, 18 June, Tuesday

    Time Temperature Precipitation Wind Pressure Humidity
    00:00 +16°C° 0 mm 2 mps 747 mmHg 81%
    01:00 +15°C° 0 mm 2 mps 747 mmHg 82%
    02:00 +15°C° 0 mm 2 mps 747 mmHg 85%
    03:00 +14°C° 0 mm 2 mps 747 mmHg 87%
    04:00 +14°C° 0 mm 2 mps 747 mmHg 89%
    05:00 +16°C° 0 mm 2 mps 747 mmHg 85%
    06:00 +18°C° 0 mm 3 mps 747 mmHg 80%
    07:00 +19°C° 0 mm 3 mps 747 mmHg 76%
    08:00 +21°C° 0 mm 4 mps 747 mmHg 72%
    09:00 +22°C° 0 mm 4 mps 746 mmHg 68%
    10:00 +23°C° 0 mm 4 mps 746 mmHg 64%
    11:00 +25°C° 0 mm 4 mps 746 mmHg 64%
    12:00 +26°C° 0 mm 4 mps 745 mmHg 63%
    13:00 +26°C° 0 mm 4 mps 745 mmHg 62%
    14:00 +26°C° 0.1 mm 4 mps 744 mmHg 63%
    15:00 +26°C° 0.1 mm 4 mps 744 mmHg 65%
    16:00 +26°C° 0.1 mm 4 mps 744 mmHg 66%
    17:00 +25°C° 0.2 mm 4 mps 743 mmHg 71%
    18:00 +25°C° 0.2 mm 3 mps 743 mmHg 76%
    19:00 +24°C° 0.2 mm 3 mps 743 mmHg 81%
    20:00 +21°C° 0 mm 3 mps 743 mmHg 84%
    21:00 +20°C° 0 mm 2 mps 743 mmHg 88%
    22:00 +19°C° 0 mm 2 mps 743 mmHg 91%
    23:00 +18°C° 0 mm 2 mps 743 mmHg 92%

    19 June, Wednesday

    Time Temperature Precipitation Wind Pressure Humidity
    00:00 +18°C° 0 mm 2 mps 742 mmHg 92%
    01:00 +19°C° 0 mm 1 mps 742 mmHg 93%
    02:00 +18°C° 0 mm 1 mps 742 mmHg 93%
    03:00 +18°C° 0 mm 1 mps 742 mmHg 93%
    04:00 +18°C° 0 mm 1 mps 741 mmHg 92%
    05:00 +20°C° 0 mm 1 mps 741 mmHg 88%
    06:00 +21°C° 0 mm 1 mps 741 mmHg 84%
    07:00 +23°C° 0 mm 1 mps 741 mmHg 79%
    08:00 +24°C° 0 mm 1 mps 741 mmHg 73%
    09:00 +26°C° 0 mm 1 mps 741 mmHg 68%
    10:00 +27°C° 0 mm 1 mps 741 mmHg 62%
    11:00 +28°C° 0 mm 1 mps 741 mmHg 59%
    12:00 +29°C° 0 mm 1 mps 740 mmHg 56%
    13:00 +30°C° 0 mm 2 mps 740 mmHg 53%
    14:00 +30°C° 0.1 mm 2 mps 740 mmHg 54%
    15:00 +30°C° 0.1 mm 2 mps 740 mmHg 54%
    16:00 +30°C° 0.1 mm 2 mps 739 mmHg 54%
    17:00 +28°C° 0.1 mm 2 mps 739 mmHg 60%
    18:00 +27°C° 0.1 mm 2 mps 739 mmHg 66%
    19:00 +26°C° 0.1 mm 2 mps 739 mmHg 72%
    20:00 +25°C° 0 mm 2 mps 739 mmHg 74%
    21:00 +23°C° 0 mm 2 mps 739 mmHg 77%
    22:00 +21°C° 0 mm 2 mps 740 mmHg 79%
    23:00 +21°C° 0 mm 2 mps 739 mmHg 80%

    20 June, Thursday

    Time Temperature Precipitation Wind Pressure Humidity
    00:00 +20°C° 0 mm 2 mps 739 mmHg 81%
    01:00 +20°C° 0 mm 2 mps 739 mmHg 82%
    02:00 +19°C° 0 mm 2 mps 739 mmHg 83%
    03:00 +20°C° 0 mm 1 mps 739 mmHg 83%
    04:00 +20°C° 0 mm 1 mps 739 mmHg 83%
    05:00 +21°C° 0 mm 2 mps 739 mmHg 80%
    06:00 +23°C° 0 mm 2 mps 740 mmHg 77%
    07:00 +25°C° 0 mm 2 mps 740 mmHg 73%
    08:00 +26°C° 0 mm 2 mps 740 mmHg 67%
    09:00 +28°C° 0 mm 2 mps 740 mmHg 60%
    10:00 +29°C° 0 mm 2 mps 740 mmHg 54%
    11:00 +30°C° 0 mm 2 mps 740 mmHg 52%
    12:00 +30°C° 0 mm 3 mps 740 mmHg 50%
    13:00 +31°C° 0 mm 3 mps 740 mmHg 48%
    14:00 +31°C° 0.1 mm 3 mps 740 mmHg 50%
    15:00 +30°C° 0.1 mm 2 mps 740 mmHg 51%
    16:00 +30°C° 0.1 mm 2 mps 740 mmHg 53%
    17:00 +28°C° 0.4 mm 2 mps 740 mmHg 60%
    18:00 +26°C° 0.4 mm 2 mps 740 mmHg 67%
    19:00 +25°C° 0.4 mm 2 mps 740 mmHg 73%
    20:00 +23°C° 0.9 mm 1 mps 740 mmHg 77%
    21:00 +22°C° 0.9 mm 1 mps 740 mmHg 81%
    22:00 +20°C° 0.9 mm 1 mps 740 mmHg 84%
    23:00 +18°C° 0.9 mm 0 mps 740 mmHg 87%

    21 June, Friday

    Time Temperature Precipitation Wind Pressure Humidity
    00:00 +18°C° 0.9 mm 0 mps 740 mmHg 90%
    01:00 +17°C° 0.9 mm 0 mps 740 mmHg 92%
    02:00 +19°C° 0.7 mm 1 mps 740 mmHg 94%
    03:00 +19°C° 0.7 mm 1 mps 741 mmHg 95%
    04:00 +18°C° 0.7 mm 1 mps 741 mmHg 97%
    05:00 +19°C° 0.5 mm 1 mps 741 mmHg 96%
    06:00 +20°C° 0.5 mm 1 mps 741 mmHg 95%
    07:00 +19°C° 0.5 mm 2 mps 741 mmHg 94%
    08:00 +19°C° 0.2 mm 2 mps 742 mmHg 93%
    09:00 +20°C° 0.2 mm 2 mps 742 mmHg 92%
    10:00 +20°C° 0.2 mm 2 mps 742 mmHg 90%
    11:00 +20°C° 0.5 mm 2 mps 742 mmHg 92%
    12:00 +19°C° 0.5 mm 2 mps 742 mmHg 93%
    13:00 +19°C° 0.5 mm 3 mps 742 mmHg 95%
    14:00 +19°C° 0 mm 2 mps 742 mmHg 89%
    15:00 +20°C° 0 mm 2 mps 742 mmHg 84%
    16:00 +22°C° 0 mm 1 mps 743 mmHg 79%
    17:00 +22°C° 0 mm 1 mps 743 mmHg 80%
    18:00 +22°C° 0 mm 1 mps 743 mmHg 81%
    19:00 +22°C° 0 mm 1 mps 743 mmHg 82%
    20:00 +20°C° 0 mm 1 mps 744 mmHg 86%
    21:00 +19°C° 0 mm 1 mps 744 mmHg 89%
    22:00 +18°C° 0 mm 1 mps 744 mmHg 93%
    23:00 +18°C° 0 mm 1 mps 745 mmHg 93%
    Show more